Tiempo cada hora Abaeté

Hoy, 26 Octubre, Lunes

Tiempo Temperatura Precipitaciones Viento Presión Humedad
00:00 +23°C° 0 mm 1 mps 702 mmHg 88%
01:00 +23°C° 0 mm 1 mps 702 mmHg 88%
02:00 +22°C° 0 mm 1 mps 701 mmHg 89%
03:00 +22°C° 0 mm 1 mps 701 mmHg 90%
04:00 +22°C° 0 mm 1 mps 701 mmHg 91%
05:00 +21°C° 0 mm 1 mps 702 mmHg 93%
06:00 +21°C° 0 mm 1 mps 702 mmHg 94%
07:00 +23°C° 0 mm 1 mps 703 mmHg 87%
08:00 +24°C° 0 mm 1 mps 703 mmHg 80%
09:00 +26°C° 0 mm 1 mps 704 mmHg 73%
10:00 +27°C° 0 mm 2 mps 703 mmHg 67%
11:00 +28°C° 0 mm 2 mps 703 mmHg 61%
12:00 +30°C° 0 mm 2 mps 703 mmHg 56%
13:00 +30°C° 0 mm 2 mps 702 mmHg 54%
14:00 +31°C° 0 mm 2 mps 702 mmHg 51%
15:00 +31°C° 0 mm 2 mps 701 mmHg 49%
16:00 +30°C° 0 mm 2 mps 701 mmHg 53%
17:00 +29°C° 0 mm 2 mps 701 mmHg 57%
18:00 +28°C° 0 mm 1 mps 701 mmHg 61%
19:00 +27°C° 0 mm 1 mps 701 mmHg 63%
20:00 +24°C° 0 mm 0 mps 702 mmHg 65%
21:00 +24°C° 0 mm 0 mps 702 mmHg 67%
22:00 +23°C° 0 mm 0 mps 702 mmHg 68%
23:00 +23°C° 0 mm 0 mps 702 mmHg 69%

Mañana, 27 Octubre, Martes

Tiempo Temperatura Precipitaciones Viento Presión Humedad
00:00 +23°C° 0 mm 0 mps 702 mmHg 70%
01:00 +22°C° 0 mm 0 mps 702 mmHg 72%
02:00 +22°C° 0 mm 0 mps 701 mmHg 74%
03:00 +23°C° 0 mm 1 mps 700 mmHg 76%
04:00 +23°C° 0 mm 1 mps 701 mmHg 77%
05:00 +23°C° 0 mm 1 mps 701 mmHg 78%
06:00 +21°C° 0 mm 0 mps 701 mmHg 79%
07:00 +25°C° 0 mm 1 mps 701 mmHg 72%
08:00 +27°C° 0 mm 1 mps 702 mmHg 64%
09:00 +29°C° 0 mm 1 mps 702 mmHg 57%
10:00 +30°C° 0 mm 1 mps 702 mmHg 53%
11:00 +32°C° 0 mm 2 mps 702 mmHg 48%
12:00 +34°C° 0 mm 2 mps 702 mmHg 44%
13:00 +34°C° 0 mm 2 mps 701 mmHg 46%
14:00 +33°C° 0 mm 1 mps 701 mmHg 48%
15:00 +32°C° 0 mm 1 mps 700 mmHg 50%
16:00 +31°C° 0 mm 1 mps 700 mmHg 55%
17:00 +30°C° 0 mm 1 mps 700 mmHg 60%
18:00 +29°C° 0 mm 1 mps 700 mmHg 65%
19:00 +28°C° 0.1 mm 1 mps 700 mmHg 67%
20:00 +27°C° 0.1 mm 1 mps 701 mmHg 69%
21:00 +26°C° 0.1 mm 1 mps 701 mmHg 70%
22:00 +26°C° 0 mm 1 mps 701 mmHg 73%
23:00 +23°C° 0 mm 0 mps 701 mmHg 75%

Pasado mañana, 28 Octubre, Miércoles

Tiempo Temperatura Precipitaciones Viento Presión Humedad
00:00 +23°C° 0 mm 0 mps 701 mmHg 77%
01:00 +23°C° 0 mm 0 mps 701 mmHg 78%
02:00 +22°C° 0 mm 0 mps 701 mmHg 79%
03:00 +22°C° 0 mm 0 mps 701 mmHg 80%
04:00 +22°C° 0 mm 0 mps 701 mmHg 81%
05:00 +22°C° 0 mm 0 mps 702 mmHg 81%
06:00 +22°C° 0 mm 0 mps 702 mmHg 82%
07:00 +24°C° 0 mm 0 mps 702 mmHg 75%
08:00 +26°C° 0 mm 0 mps 703 mmHg 68%
09:00 +28°C° 0 mm 0 mps 704 mmHg 60%
10:00 +31°C° 0 mm 1 mps 703 mmHg 56%
11:00 +32°C° 0 mm 1 mps 703 mmHg 51%
12:00 +35°C° 0 mm 2 mps 703 mmHg 47%
13:00 +35°C° 0 mm 2 mps 702 mmHg 47%
14:00 +35°C° 0 mm 2 mps 702 mmHg 47%
15:00 +35°C° 0 mm 2 mps 702 mmHg 47%
16:00 +32°C° 0 mm 2 mps 701 mmHg 52%
17:00 +31°C° 0 mm 2 mps 701 mmHg 57%
18:00 +30°C° 0 mm 1 mps 701 mmHg 62%
19:00 +29°C° 0.3 mm 1 mps 701 mmHg 64%
20:00 +28°C° 0.3 mm 1 mps 701 mmHg 67%
21:00 +26°C° 0.3 mm 0 mps 701 mmHg 69%
22:00 +25°C° 1.6 mm 0 mps 701 mmHg 74%
23:00 +26°C° 1.6 mm 1 mps 702 mmHg 79%

29 Octubre, Jueves

Tiempo Temperatura Precipitaciones Viento Presión Humedad
00:00 +25°C° 1.6 mm 1 mps 702 mmHg 83%
01:00 +25°C° 1.8 mm 2 mps 702 mmHg 83%
02:00 +25°C° 1.8 mm 4 mps 702 mmHg 83%
03:00 +25°C° 1.8 mm 5 mps 702 mmHg 84%
04:00 +24°C° 0.2 mm 3 mps 702 mmHg 85%
05:00 +24°C° 0.2 mm 2 mps 703 mmHg 86%
06:00 +22°C° 0.2 mm 0 mps 703 mmHg 87%
07:00 +24°C° 0 mm 1 mps 703 mmHg 86%
08:00 +25°C° 0 mm 1 mps 704 mmHg 85%
09:00 +25°C° 0 mm 2 mps 704 mmHg 84%
10:00 +26°C° 0.2 mm 3 mps 704 mmHg 79%
11:00 +28°C° 0.2 mm 4 mps 704 mmHg 74%
12:00 +29°C° 0.2 mm 4 mps 704 mmHg 68%
13:00 +29°C° 0.7 mm 4 mps 703 mmHg 66%
14:00 +30°C° 0.7 mm 4 mps 703 mmHg 64%
15:00 +30°C° 0.7 mm 4 mps 703 mmHg 62%
16:00 +29°C° 0.7 mm 4 mps 702 mmHg 68%
17:00 +28°C° 0.7 mm 3 mps 702 mmHg 74%
18:00 +27°C° 0.7 mm 2 mps 702 mmHg 79%
19:00 +26°C° 3.3 mm 3 mps 703 mmHg 83%
20:00 +25°C° 3.3 mm 3 mps 703 mmHg 87%
21:00 +24°C° 3.3 mm 3 mps 704 mmHg 91%
22:00 +24°C° 0 mm 3 mps 704 mmHg 91%
23:00 +24°C° 0 mm 3 mps 704 mmHg 90%

30 Octubre, Viernes

Tiempo Temperatura Precipitaciones Viento Presión Humedad
00:00 +24°C° 0 mm 3 mps 704 mmHg 90%
01:00 +24°C° 0.3 mm 3 mps 704 mmHg 91%
02:00 +24°C° 0.3 mm 3 mps 703 mmHg 91%
03:00 +23°C° 0.3 mm 2 mps 703 mmHg 92%
04:00 +23°C° 0.8 mm 2 mps 704 mmHg 92%
05:00 +22°C° 0.8 mm 3 mps 704 mmHg 92%
06:00 +22°C° 0.8 mm 3 mps 704 mmHg 92%
07:00 +24°C° 1.3 mm 3 mps 705 mmHg 88%
08:00 +25°C° 1.3 mm 4 mps 705 mmHg 84%
09:00 +26°C° 1.3 mm 4 mps 706 mmHg 80%
10:00 +28°C° 1.2 mm 4 mps 705 mmHg 75%
11:00 +29°C° 1.2 mm 3 mps 705 mmHg 70%
12:00 +30°C° 1.2 mm 3 mps 705 mmHg 66%
13:00 +30°C° 0.6 mm 3 mps 705 mmHg 65%
14:00 +31°C° 0.6 mm 3 mps 704 mmHg 64%
15:00 +31°C° 0.6 mm 2 mps 704 mmHg 63%
16:00 +30°C° 0.6 mm 2 mps 704 mmHg 68%
17:00 +28°C° 0.6 mm 2 mps 704 mmHg 74%
18:00 +27°C° 0.6 mm 1 mps 704 mmHg 79%
19:00 +27°C° 0.9 mm 1 mps 704 mmHg 81%
20:00 +26°C° 0.9 mm 1 mps 705 mmHg 82%
21:00 +26°C° 0.9 mm 1 mps 705 mmHg 84%
22:00 +25°C° 0.9 mm 1 mps 705 mmHg 84%
23:00 +25°C° 0.9 mm 2 mps 705 mmHg 85%

31 Octubre, Sábado

Tiempo Temperatura Precipitaciones Viento Presión Humedad
00:00 +25°C° 0.9 mm 2 mps 705 mmHg 86%
01:00 +24°C° 0.3 mm 2 mps 705 mmHg 87%
02:00 +24°C° 0.3 mm 2 mps 704 mmHg 88%
03:00 +24°C° 0.3 mm 2 mps 704 mmHg 89%
Mostrar más

Necesitamos Su Consentimiento

Meteoprog y nuestros Proveedores de Servicios pueden almacenar y acceder a sus datos personales como cookies, identificadores de dispositivo u otras tecnologías similares de su dispositivo y procesar dichos datos para personalizar contenido y anuncios, además de ofrecer funciones de redes sociales y analizar el tráfico.

  • Almacenar y/o acceder a información en su dispositivo

    Se puede almacenar o acceder a cookies, identificadores de dispositivo u otra información de su dispositivo para los fines anteriormente indicados.

  • Anuncios y contenido personalizados, medición de anuncios y contenido, percepciones del público, y desarrollo de productos

    Los anuncios y el contenido pueden personalizarse en base a su perfil. Se pueden añadir más datos para personalizar mejor los anuncios y contenidos. Se puede medir el rendimiento de los anuncios y contenidos. Se puede obtener la percepción sobre el público que ha visto los anuncios y contenidos. Dichos datos pueden usarse para desarrollar o mejorar la experiencia del usuario, sistemas y software.

Al hacer clic en ‘Estoy De Acuerdo’ usted permitirá el uso de las cookies, identificadores de dispositivo, balizas web u otras tecnologías similares indicadas. Su configuración puede cambiarse desde el navegador de su dispositivo.

Para ciertos fines, los intereses legítimos pueden ser considerados por encima del consentimiento. Puede leer más sobre ello en nuestra Política de Privacidad y Cookies.